Weather History for Montreal, QC

Change the Weather History Date:

Sunday, July 21, 2013

  Actual Average Record
Temperature  
Mean Temperature 64 °F -  
Max Temperature 71 °F 76 °F 95 °F (2011)
Min Temperature 57 °F 60 °F 55 °F (2012)
Degree Days  
Heating Degree Days 1    
Growing Degree Days 14 (Base 50)    
Moisture  
Dew Point 47 °F    
Average Humidity 51    
Maximum Humidity 67    
Minimum Humidity 33    
Precipitation  
Precipitation 0.00 in - - ()
Sea Level Pressure  
Sea Level Pressure 29.99 in    
Wind  
Wind Speed 8 mph ()    
Max Wind Speed 15 mph    
Max Gust Speed 20 mph    
Visibility 15.0 miles    
Events      
Averages and records for this station are not official NWS values.
T = Trace of Precipitation, MM = Missing Value Source: Averaged Metar Reports

Daily Weather History Graph

Daily Weather History Graph

Search for Another Location

Airport:

Trip Planner

Search our weather history database for the weather conditions in past years. The results will help you decide how hot, cold, wet, or windy it might be!

Date:

Astronomy

Jul. 21, 2013 Rise Set
Actual Time 5:27 AM EDT 8:35 PM EDT
Civil Twilight 4:51 AM EDT 9:10 PM EDT
Nautical Twilight 4:05 AM EDT 9:56 PM EDT
Astronomical Twilight 3:09 AM EDT 10:52 PM EDT
Moon 7:28 PM EDT (7/21) 4:10 AM EDT (7/21)
Length of Visible Light 16h 19m
Length of Day
15h 08m
Waxing Gibbous, 98% of the Moon is Illuminated
Jul 21
Waxing Gibbous
Jul 22
Full
Jul 29
Last Quarter
Aug 6
New
Aug 14
First Quarter

Hourly Weather History & Observations

Time (EDT) Temp. Dew Point Humidity Pressure Visibility Wind Dir Wind Speed Gust Speed Precip Events Conditions
12:00 AM 66.2 °F 50.0 °F 56% 29.86 in 15.0 mi North 12.7 mph 19.6 mph N/A   Mostly Cloudy
1:00 AM 64.4 °F 48.2 °F 56% 29.89 in 15.0 mi North 15.0 mph - N/A   Mostly Cloudy
2:00 AM 62 °F 48 °F 50% 29.92 in 15 mi North 11.5 mph - -   Mostly Cloudy
2:00 AM 62.6 °F 48.2 °F 59% 29.92 in 15.0 mi North 9.2 mph 18.4 mph N/A   Mostly Cloudy
3:00 AM 60.8 °F 48.2 °F 63% 29.93 in 15.0 mi North 12.7 mph - N/A   Mostly Cloudy
4:00 AM 60.8 °F 46.4 °F 59% 29.96 in 15.0 mi NNE 11.5 mph - N/A   Mostly Cloudy
5:00 AM 59.0 °F 46.4 °F 63% 29.98 in 15.0 mi North 8.1 mph - N/A   Mostly Cloudy
6:00 AM 57.2 °F 46.4 °F 67% 29.99 in 30.0 mi NNE 8.1 mph - N/A   Scattered Clouds
7:00 AM 59.0 °F 44.6 °F 59% 30.01 in 30.0 mi North 11.5 mph - N/A   Mostly Cloudy
8:00 AM 60 °F 45 °F 46% 30.03 in 28 mi NNE 10.4 mph - -   Partly Cloudy
8:00 AM 59.0 °F 44.6 °F 59% 30.03 in 30.0 mi NNE 10.4 mph - N/A   Scattered Clouds
9:00 AM 60.8 °F 42.8 °F 52% 30.04 in 30.0 mi NNE 10.4 mph - N/A   Partly Cloudy
10:00 AM 64.4 °F 44.6 °F 49% 30.04 in 30.0 mi NNE 10.4 mph - N/A   Scattered Clouds
11:00 AM 64.4 °F 42.8 °F 45% 30.05 in 30.0 mi North 5.8 mph - N/A   Scattered Clouds
12:00 PM 66.2 °F 44.6 °F 46% 30.04 in 30.0 mi Variable 4.6 mph - N/A   Partly Cloudy
1:00 PM 68.0 °F 46.4 °F 46% 30.04 in 30.0 mi Calm Calm - N/A   Partly Cloudy
2:00 PM 69 °F 47 °F 34% 30.02 in 28 mi WSW 5.8 mph - -   Clear
2:00 PM 68.0 °F 46.4 °F 46% 30.02 in 30.0 mi West 4.6 mph - N/A   Partly Cloudy
3:00 PM 69.8 °F 48.2 °F 46% 30.02 in 30.0 mi SW 9.2 mph - N/A   Partly Cloudy
4:00 PM 69.8 °F 46.4 °F 43% 30.01 in 30.0 mi SSW 8.1 mph - N/A   Partly Cloudy
5:00 PM 69.8 °F 48.2 °F 46% 30.00 in 30.0 mi South 8.1 mph - N/A   Partly Cloudy
6:00 PM 69.8 °F 48.2 °F 46% 29.99 in 30.0 mi SW 4.6 mph - N/A   Partly Cloudy
7:00 PM 69.8 °F 50.0 °F 49% 29.99 in 30.0 mi SSW 6.9 mph - N/A   Partly Cloudy
8:00 PM 69 °F 46 °F 33% 30.00 in 28 mi West 4.6 mph - -   Clear
8:00 PM 69.8 °F 46.4 °F 43% 30.00 in 30.0 mi West 3.5 mph - N/A   Partly Cloudy
9:00 PM 66.2 °F 46.4 °F 49% 30.01 in 30.0 mi West 3.5 mph - N/A   Partly Cloudy
10:00 PM 64.4 °F 48.2 °F 56% 30.01 in 15.0 mi WSW 3.5 mph - N/A   Clear
11:00 PM 62.6 °F 50.0 °F 63% 30.02 in 15.0 mi Calm Calm - N/A   Clear